Location: Cahas Mountain Overlook
(37.0833°N, 80.1000°W)
Time: 07:06:36
(UTC-04:00)

Explorer 7 - Pass Details

Date: 10 February 2026
Orbit: 430 x 540 km, 50.2° (Epoch: 14 March)

Event Time Altitude Azimuth Distance (km) Brightness Sun altitude
Rises 19:29:58 0° 278° (W) 2,508 11.7 -19.4°
Reaches altitude 10° 19:32:41 10° 300° (WNW) 1,658 10.1 -19.9°
Maximum altitude 19:35:13 17° 342° (NNW) 1,304 8.9 -20.4°
Enters shadow 19:36:27 15° 6° (N) 1,410 8.8 -20.7°
Drops below altitude 10° 19:37:50 10° 25° (NNE) 1,711 - -20.9°
Sets 19:40:41 0° 46° (NE) 2,624 - -21.5°
